Back to catalog

SL-6 R/B(2)

AliveHEO
NORAD 12086·ROCKET BODY·🇷🇺 Russia

Launched Nov 27, 1980 from Plesetsk Cosmodrome

Loading…

Next Passes (next 24 hours)

TLE

FreshSource: Space-Track

Epoch: Sep 14, 2026, 07:14 UTC

1 12086U 80095E   26257.30183491  .00000655  00000-0  00000-0 0  9996
2 12086  64.9105 129.9513 6846412  32.2679 355.6262  1.99084084332903

Track SL-6 R/B(2) in real time with AllMySat

Download on the App Store